Probability
0 0 0 1 0 0 0 0 0 0 0 0 0 0 0 0 0 0 0 0 1 2 3 4 5 5 4 5 5 5 5 6 6 6 6 6 5 4 3 3 3 3 3 3 3 3 3 2 1
0 0 1 1 1 0 0 0 0 0 0 0 0 0 0 0 0 0 0 0 1 2 3 4 6 6 5 5 5 4 5 5 5 6 6 6 5 4 3 3 3 3 3 3 3 3 3 2 1
0 1 2 2 1 0 0 0 0 0 0 0 0 0 0 0 0 0 0 0 1 2 3 5 7 7 6 6 5 5 4 4 5 6 6 5 4 3 3 3 3 3 3 3 3 3 3 3 2
1 2 2 1 0 0 0 0 0 0 0 0 0 0 0 0 0 0 0 0 1 2 3 5 6 6 6 6 6 6 5 4 5 6 5 4 3 3 3 3 3 3 3 3 3 3 3 3 3
2 2 1 0 0 0 0 0 0 0 0 0 0 0 0 0 0 0 0 0 1 3 4 5 6 6 6 6 6 6 6 6 6 6 4 3 3 4 3 3 3 3 3 3 3 3 3 3 3
2 2 1 0 0 0 0 0 0 0 0 0 0 0 0 0 0 0 0 0 2 3 3 4 6 6 7 8 7 7 7 6 6 6 4 3 4 4 4 4 3 3 3 3 3 3 3 3 3
2 1 0 0 0 0 0 0 0 0 0 0 0 0 0 0 0 0 1 1 2 3 4 5 6 6 6 7 7 7 7 7 7 6 4 3 3 4 4 5 4 3 3 3 3 3 3 3 3
2 1 0 0 0 0 0 0 0 0 0 0 0 0 0 0 0 1 2 2 3 3 4 5 5 4 5 6 7 6 6 6 7 7 4 3 3 3 4 5 4 3 3 3 3 3 3 3 3
1 0 0 1 1 0 0 0 0 0 0 1 1 0 0 0 1 2 3 3 4 4 4 4 4 3 4 5 6 5 4 5 6 5 3 2 3 3 3 3 3 3 3 3 3 3 3 3 3
1 1 1 2 2 1 0 0 0 0 1 2 2 1 1 2 2 2 2 3 4 4 4 4 3 3 4 4 4 3 2 3 3 2 1 1 1 2 2 2 2 3 3 3 3 4 3 3 3
2 2 3 3 2 1 0 0 0 0 1 2 3 3 3 3 3 2 1 1 3 4 4 4 3 3 3 4 3 1 1 1 1 0 0 0 0 1 1 1 2 2 2 2 3 4 4 3 2
2 2 3 3 2 1 0 0 0 0 0 2 4 4 5 5 3 2 1 0 1 2 2 2 2 3 3 3 2 1 0 0 0 0 0 0 0 0 0 0 1 1 1 1 2 3 3 2 1
1 1 1 3 2 1 1 0 0 0 1 3 5 6 7 7 4 1 0 0 0 1 1 0 1 1 2 2 1 0 0 0 0 0 0 0 0 0 0 0 0 0 0 0 1 2 3 3 2
0 0 1 2 2 2 1 0 0 1 2 4 6 8 9 9 5 1 0 0 0 0 0 0 0 0 1 1 0 0 0 0 0 0 0 0 0 0 0 0 0 0 0 1 2 2 3 3 3
0 0 0 1 2 2 1 1 1 1 3 4 5 7 8 7 4 1 0 0 0 0 0 0 0 0 0 0 0 0 0 0 0 0 0 0 0 0 0 0 0 0 0 1 2 3 4 4 4
0 0 0 0 1 1 1 2 2 3 4 4 6 6 6 5 4 1 0 0 0 0 0 0 0 0 0 0 0 0 0 0 0 0 0 0 0 0 0 0 0 0 0 1 3 4 5 6 6
0 0 0 0 0 0 1 2 3 5 6 7 7 8 7 6 5 3 1 0 0 0 0 0 0 0 0 0 0 0 0 0 0 0 0 0 0 0 0 0 0 0 0 2 4 5 5 6 6
0 0 0 0 0 0 0 1 3 6 8 8 7 8 8 6 5 3 1 0 0 0 0 0 0 0 0 0 0 0 0 0 0 0 0 0 0 0 0 0 0 1 1 2 4 4 4 4 4
0 0 0 0 0 0 0 1 3 5 6 7 7 7 7 5 3 1 0 0 0 0 0 0 0 0 0 0 0 0 0 0 0 0 0 0 0 0 0 0 1 2 2 2 2 3 3 3 3
0 0 0 0 0 0 0 1 2 2 3 4 5 6 5 3 1 0 0 0 0 0 0 0 0 0 0 0 0 0 0 0 0 0 0 0 0 0 0 0 1 1 1 0 1 1 2 2 1
0 0 0 0 0 0 0 0 0 0 1 2 3 3 3 1 0 0 0 0 0 0 0 0 0 0 0 0 0 0 0 0 0 0 0 0 0 0 0 0 0 0 0 0 0 0 1 1 0
0 0 0 0 0 0 0 0 0 0 0 1 1 1 1 1 0 0 0 1 1 1 1 2 1 1 0 1 1 0 0 0 0 0 0 0 0 0 0 0 0 0 0 0 0 0 0 0 0
0 0 0 0 0 0 0 0 0 0 0 0 0 0 1 1 2 2 2 4 3 3 4 3 2 1 1 1 2 1 0 0 0 0 0 0 0 1 1 1 0 0 0 0 1 1 1 0 0
0 0 0 0 0 0 0 0 0 0 0 0 0 1 2 2 3 4 5 6 6 6 7 6 3 1 1 1 2 1 0 0 0 0 0 0 1 2 2 2 1 1 1 1 1 2 2 1 1
0 0 0 0 0 0 0 0 0 0 0 0 1 2 4 4 5 5 5 5 7 9 10 8 5 3 2 2 2 2 1 2 1 1 1 1 1 2 3 3 3 2 2 2 1 2 2 2 2
0 0 0 0 0 0 0 0 0 1 1 1 1 3 5 5 4 4 4 5 7 10 11 10 8 6 4 4 4 4 4 5 4 4 4 3 2 3 3 3 3 3 3 3 2 2 2 2 2
0 0 0 0 0 0 0 0 1 2 2 2 3 3 3 3 4 4 4 5 7 10 12 12 11 8 6 5 5 5 6 6 6 6 6 4 2 2 3 3 3 3 3 3 3 2 2 1 1
0 0 0 0 0 0 0 0 1 2 3 3 3 3 2 2 5 6 7 7 8 10 11 12 11 8 6 4 4 4 6 6 6 7 6 4 2 1 1 3 3 4 3 3 3 2 1 1 0
0 0 0 0 0 0 0 0 1 2 3 4 4 3 2 3 6 8 9 9 9 9 8 9 10 8 5 4 3 4 6 7 7 7 6 4 2 1 1 2 3 4 4 4 4 3 2 2 1
0 0 0 0 0 0 0 0 1 2 4 4 4 4 4 5 7 9 10 10 9 7 7 8 10 10 6 4 4 4 6 8 9 8 6 4 3 3 2 1 2 4 5 5 5 4 3 3 3
Wind_Speed
4 4 2 1 2 3 2 3 1 2 2 1 3 4 5 3 1 1 0 3 3 3 2 4 7 9 10 10 10 9 9 9 10 11 12 12 11 11 11 11 11 10 10 9 9 9 9 9 8
3 4 1 2 3 2 3 2 2 1 3 3 4 4 5 4 3 3 1 2 3 3 2 4 7 9 9 9 9 9 8 9 11 11 11 11 10 10 10 10 11 10 9 9 9 9 8 8 8
4 3 1 3 2 1 1 1 3 3 2 2 3 4 4 2 2 2 1 4 3 3 2 4 8 9 9 9 9 8 8 10 11 12 10 10 10 10 9 9 10 10 9 8 8 8 7 7 7
2 1 2 4 2 1 2 1 3 4 3 4 4 4 3 2 2 3 5 5 4 3 2 3 8 9 9 9 9 8 9 10 11 11 10 10 9 9 9 8 8 8 8 8 7 6 6 5 5
1 2 4 3 2 1 1 2 2 3 3 3 4 4 3 4 5 7 6 5 4 3 2 3 8 8 8 8 8 9 9 10 10 10 9 9 8 8 8 8 7 7 7 6 6 5 5 4 5
2 3 4 1 1 1 1 2 3 4 4 3 4 4 2 2 5 5 5 4 4 3 2 2 6 8 8 8 8 8 9 9 8 8 8 8 7 7 7 6 6 6 6 5 5 4 4 4 3
2 3 2 0 0 0 1 2 2 3 4 3 4 4 2 2 4 5 5 4 4 3 3 3 3 4 6 6 7 7 7 7 7 7 7 6 6 5 5 5 5 5 5 5 4 4 3 3 3
2 3 2 1 1 1 1 2 2 3 3 3 4 5 4 4 5 6 6 5 4 4 3 3 3 3 3 3 5 6 6 6 6 6 5 5 4 4 4 3 3 3 4 3 3 3 3 2 2
2 4 1 2 2 2 2 2 1 3 4 2 2 3 5 9 9 7 5 4 3 3 3 2 2 3 2 2 3 4 5 5 4 4 4 4 2 2 2 2 2 2 2 2 2 2 2 2 2
3 2 3 3 3 3 2 2 3 3 3 3 4 6 10 10 8 7 6 5 3 2 2 2 2 2 2 1 2 2 2 2 3 2 3 2 2 2 2 2 1 1 1 1 1 2 2 2 1
2 3 2 2 2 3 3 2 3 5 2 5 8 11 12 10 7 7 6 4 4 3 2 2 1 2 2 1 2 1 1 2 2 3 2 2 2 2 2 2 2 2 3 2 2 2 1 1 1
2 3 3 2 1 2 4 3 3 3 4 5 11 13 13 11 9 7 6 5 3 3 2 2 2 2 2 1 1 2 1 1 1 1 2 2 1 1 1 1 2 2 1 2 2 1 1 2 1
1 2 1 1 1 2 4 3 3 1 2 9 11 11 11 10 7 5 4 4 4 3 3 2 2 2 2 2 1 2 1 1 1 1 1 1 1 1 1 1 1 1 1 1 1 1 1 1 1
1 1 2 2 1 2 4 2 3 1 6 9 10 10 10 9 8 6 5 4 4 4 4 3 3 2 2 2 1 1 1 1 1 1 1 1 1 1 0 1 1 1 1 1 1 1 1 1 1
1 2 4 1 2 2 5 2 1 4 8 9 9 9 9 7 7 7 7 6 5 4 4 4 4 3 3 2 2 1 1 1 1 1 1 1 1 1 1 1 1 1 1 1 1 1 1 1 1
3 3 2 3 1 2 5 2 3 6 9 8 8 9 8 7 7 7 7 6 5 4 4 4 4 4 3 2 2 1 1 1 1 1 1 1 1 2 1 1 0 1 1 1 1 1 1 1 1
3 2 2 3 0 2 3 3 3 6 8 8 9 8 8 7 6 6 7 6 6 5 5 4 3 4 3 3 2 2 1 1 1 1 1 1 1 2 2 1 0 1 1 1 1 1 1 1 1
2 1 2 3 1 2 1 3 3 6 8 8 7 7 7 8 8 7 7 6 6 5 4 4 4 3 3 3 2 2 2 1 1 1 1 1 1 2 2 1 1 1 1 1 1 1 2 1 1
3 2 3 4 2 1 3 4 5 6 7 7 7 8 9 9 6 5 6 6 6 5 4 4 4 4 3 2 2 1 1 0 0 0 1 1 1 2 2 1 1 1 1 1 1 1 2 2 1
2 2 3 3 1 1 2 4 4 6 9 9 10 10 10 7 6 6 6 6 7 7 6 5 5 5 4 3 2 2 2 1 1 0 0 0 1 2 2 2 1 1 1 1 1 1 1 1 1
3 5 4 2 2 3 1 5 3 3 4 5 6 7 8 10 9 8 8 7 7 7 7 7 6 5 5 4 3 2 2 1 1 1 0 0 1 1 1 2 2 1 2 1 1 1 2 1 1
5 5 4 3 2 2 1 3 6 3 4 6 6 6 7 8 8 8 8 8 8 8 7 6 6 6 5 5 4 4 3 2 2 1 0 0 0 1 1 2 2 2 1 1 1 1 1 2 1
5 0 3 3 3 1 1 1 8 1 4 7 7 7 7 7 8 9 9 9 8 7 6 6 6 5 5 5 5 5 3 2 1 1 1 0 0 0 1 1 2 2 1 1 1 1 1 1 2
3 5 6 5 4 1 3 3 7 4 7 6 7 8 8 8 8 8 7 7 6 6 6 6 6 5 5 5 5 5 5 4 3 1 1 0 0 0 0 1 1 1 1 2 2 2 2 1 1
4 6 4 4 3 5 2 2 9 6 6 7 7 8 8 7 7 7 7 7 7 7 7 7 7 6 5 5 5 6 6 5 5 4 2 1 1 1 1 1 1 1 2 2 1 1 1 2 2
4 8 7 5 5 4 1 5 8 4 4 4 4 5 6 6 6 6 7 8 8 8 7 7 7 6 6 6 5 5 5 4 3 4 3 3 2 2 2 2 2 2 2 2 2 1 2 1 2
5 3 5 7 2 1 4 6 8 3 2 1 3 4 5 6 6 6 6 6 6 6 7 7 7 6 6 6 5 4 4 4 4 3 3 2 2 2 2 2 2 2 2 2 2 1 2 1 2
4 7 5 6 4 3 4 4 5 4 3 2 3 4 4 4 4 4 4 5 5 5 5 5 6 6 5 5 5 5 4 4 4 3 3 2 2 2 2 2 2 2 2 2 2 2 2 2 2
3 4 5 4 4 5 3 7 6 6 4 4 4 5 5 5 4 4 4 3 4 4 4 5 5 4 4 5 4 4 4 4 3 3 3 3 3 3 3 3 3 3 3 3 3 3 2 3 2
4 5 7 5 4 4 4 8 4 3 3 3 4 4 4 4 4 4 4 4 4 4 4 4 4 5 5 4 4 4 3 3 3 3 3 3 3 3 3 3 2 3 3 3 3 3 2 3 3
Wind_Direction
189 154 148 132 51 42 7 321 6 40 42 45 85 85 93 80 96 142 343 127 122 130 141 140 138 135 137 137 135 136 139 141 141 139 140 142 143 142 143 143 143 142 141 139 135 134 133 133 133
160 165 161 61 69 40 333 317 57 75 134 124 76 69 69 62 60 94 102 122 118 129 125 135 134 132 134 133 132 134 136 136 139 138 139 139 139 140 143 145 144 144 143 142 141 141 140 138 137
172 195 87 63 74 154 249 331 115 108 105 75 69 58 70 74 95 120 137 123 109 119 120 145 139 136 133 129 126 126 126 129 133 134 135 134 135 137 138 141 145 146 147 147 147 148 146 143 142
165 89 52 59 34 260 195 194 137 119 66 55 82 68 60 50 124 124 115 113 101 104 122 151 141 136 132 127 121 117 117 123 128 129 129 130 132 132 134 138 144 148 152 153 152 149 146 145 144
90 75 53 41 342 318 160 156 128 97 75 67 86 87 43 12 87 107 112 111 105 98 104 141 141 135 130 126 120 115 111 114 119 123 126 128 131 132 133 136 141 145 150 149 143 137 139 142 140
59 65 67 29 355 13 112 125 109 91 93 100 97 94 51 69 98 112 108 101 97 96 90 122 139 134 131 128 123 118 114 115 117 120 123 124 128 133 136 138 141 142 145 143 141 139 136 132 134
93 79 94 214 329 351 163 105 115 114 105 121 121 101 89 108 108 108 97 91 85 78 71 86 108 121 126 124 124 121 117 117 118 119 121 126 128 135 139 140 142 144 146 148 147 144 144 143 139
129 89 40 316 174 236 145 101 92 108 111 110 112 133 167 164 121 101 90 83 82 73 67 74 80 85 91 108 124 122 119 120 120 119 118 117 115 125 129 133 140 148 152 152 148 149 144 143 142
105 69 335 236 189 220 138 111 90 77 103 100 91 130 140 132 122 110 101 89 92 92 66 75 85 83 87 101 126 120 122 117 111 105 103 86 56 50 83 121 143 148 144 140 136 135 144 133 118
102 124 237 224 191 165 153 140 144 107 103 91 77 91 118 129 133 135 139 138 138 136 116 91 99 97 99 117 84 67 77 79 76 70 68 61 52 33 44 39 78 89 71 61 77 98 108 96 71
156 198 246 271 203 153 146 135 130 132 175 184 158 146 143 143 147 152 155 155 160 155 140 117 116 112 115 94 90 72 67 70 70 71 72 67 53 32 27 24 24 29 31 31 30 39 51 78 86
174 255 237 272 154 137 156 144 129 167 212 168 154 150 150 157 165 168 164 164 153 145 153 139 134 124 125 109 101 91 84 79 79 77 80 81 67 38 18 25 22 29 26 25 28 42 57 68 82
188 283 316 278 64 128 124 134 136 177 123 126 136 145 156 165 168 164 159 160 157 163 173 165 150 147 134 114 111 102 95 93 87 73 78 101 106 69 24 19 20 17 32 36 26 40 67 66 73
210 319 326 342 50 96 114 102 97 163 130 134 146 158 167 169 167 159 160 172 175 176 180 170 162 159 137 127 124 119 124 119 103 105 148 145 145 140 90 41 22 10 17 23 43 44 84 74 90
87 35 358 360 66 113 108 64 203 166 141 150 164 169 170 173 170 177 179 182 183 182 176 171 172 153 144 143 149 142 141 130 133 160 162 151 156 153 135 102 29 358 21 48 62 60 74 93 95
41 48 356 310 61 101 114 215 219 161 151 165 179 178 176 178 181 184 178 179 181 175 174 177 173 155 158 156 147 123 125 134 149 152 140 151 155 144 129 116 42 19 45 68 82 71 68 62 66
25 14 292 300 283 109 125 226 219 167 162 179 187 185 181 181 189 190 185 182 181 180 177 174 164 160 165 155 133 117 108 120 140 133 142 162 148 140 129 123 93 74 63 57 80 66 80 67 50
246 261 270 264 273 98 168 241 226 185 181 190 190 187 187 193 201 192 185 179 175 176 174 172 166 160 155 132 110 96 83 79 81 117 170 159 152 145 134 132 119 100 85 61 60 74 67 74 69
187 200 258 259 229 133 233 243 230 196 191 198 194 193 197 203 197 183 181 176 168 169 165 167 167 169 154 136 138 136 156 186 40 204 192 167 157 149 142 129 111 102 105 95 73 81 71 49 57
188 230 264 297 37 130 259 268 233 197 203 205 197 196 199 197 188 188 186 179 180 181 177 174 179 176 171 164 154 144 139 148 158 303 89 155 164 164 161 151 148 136 119 85 66 87 89 61 64
236 207 222 221 10 28 16 315 272 238 216 211 204 197 195 197 197 193 190 189 185 186 186 188 186 180 173 158 125 101 81 60 56 38 7 318 151 149 151 157 153 150 142 152 175 139 140 141 70
256 235 195 152 98 310 63 291 286 249 234 220 214 205 203 204 199 194 189 191 192 193 188 184 179 179 174 160 151 148 155 170 202 194 197 22 119 161 164 154 153 154 153 167 203 161 158 151 156
226 150 123 119 120 31 343 200 282 276 243 236 218 208 203 199 195 193 192 193 193 186 181 176 172 177 173 167 169 161 163 175 158 118 90 54 16 42 145 152 150 158 172 189 186 154 149 154 160
156 69 56 54 75 301 239 183 273 238 223 228 215 207 201 195 193 193 190 186 185 177 174 170 171 183 180 173 174 171 171 166 153 160 169 231 337 9 65 150 158 169 184 203 203 187 171 170 160
105 94 42 5 9 254 252 212 252 251 234 219 210 206 198 189 186 185 182 180 183 181 179 175 175 185 182 176 181 183 182 174 180 187 191 190 208 237 242 201 188 195 211 214 201 187 189 184 181
164 144 158 192 217 266 280 238 257 273 265 229 198 187 179 177 182 186 186 186 188 186 182 180 180 185 180 179 188 190 183 184 196 194 186 192 208 226 230 210 208 213 209 217 202 196 211 190 206
143 167 160 132 143 260 274 281 300 321 353 71 143 156 174 179 184 185 181 183 185 186 185 181 179 183 181 182 181 186 187 190 195 193 189 196 213 226 223 223 222 221 211 210 191 205 218 194 209
135 143 108 122 150 244 281 271 257 276 268 232 173 171 180 174 175 171 169 175 172 178 176 166 172 180 181 180 185 190 196 198 193 180 192 205 225 239 224 236 236 233 226 217 202 215 218 205 227
116 100 106 114 147 160 238 266 233 221 228 213 206 192 185 178 173 168 161 162 155 153 160 166 174 177 180 183 184 187 190 188 183 190 204 210 218 219 219 230 236 242 237 226 211 222 218 217 233
160 162 146 152 204 175 183 263 279 206 222 206 206 194 175 161 164 164 150 142 144 159 169 172 177 182 191 189 187 195 195 182 186 199 207 207 217 221 221 226 231 245 246 230 217 225 221 214 227